, TX

(GMT )
Port Isabel

Weather History for KPIL - November, 2012

Change the Weather History Date:

Tuesday, November 6, 2012

  Actual Average Record
Temperature  
Mean Temperature 74 °F -  
Max Temperature 82 °F - - ()
Min Temperature 66 °F - - ()
Cooling Degree Days 9    
Growing Degree Days 24 (Base 50)    
Moisture  
Dew Point 65 °F    
Average Humidity 76    
Maximum Humidity 97    
Minimum Humidity 44    
Precipitation  
Precipitation 0.00 in - - ()
Sea Level Pressure  
Sea Level Pressure 30.05 in    
Wind  
Wind Speed 6 mph (ESE)    
Max Wind Speed 16 mph    
Max Gust Speed 22 mph    
Visibility 7 miles    
Events      
T = Trace of Precipitation, MM = Missing Value Source: NWS Daily Summary

Daily Weather History Graph

Daily Weather History Graph

Search for Another Location

Airport or City:

Trip Planner

Search our weather history database for the weather conditions in past years. The results will help you decide how hot, cold, wet, or windy it might be!

Date:

Astronomy

Nov. 06, 2012 Rise Set
Actual Time 6:41 AM CST 5:43 PM CST
Civil Twilight 6:17 AM CST 6:07 PM CST
Nautical Twilight 5:50 AM CST 6:35 PM CST
Astronomical Twilight 5:23 AM CST 7:02 PM CST
Moon No Moon Rise 12:39 PM CST (11/6)
Length of Visible Light 11h 49m
Length of Day
11h 01m
Waning Gibbous, 53% of the Moon is Illuminated
Nov 6
Waning Gibbous
Nov 6
Last Quarter
Nov 13
New
Nov 20
First Quarter
Nov 28
Full

Hourly Weather History & Observations

Time (CST) Temp. Heat Index Dew Point Humidity Pressure Visibility Wind Dir Wind Speed Gust Speed Precip Events Conditions
12:53 AM 72.0 °F - 70.0 °F 93% 30.00 in 8.0 mi SSW 4.6 mph - N/A   Clear
1:53 AM 71.1 °F - 69.1 °F 93% 29.99 in 7.0 mi South 3.5 mph - N/A   Clear
2:53 AM 71.1 °F - 69.1 °F 93% 29.99 in 6.0 mi SSW 4.6 mph - N/A   Clear
3:53 AM 70.0 °F - 69.1 °F 97% 29.98 in 6.0 mi SSW 5.8 mph - N/A   Clear
4:31 AM 69.8 °F - 68.0 °F 94% 29.98 in 2.5 mi SW 4.6 mph - N/A   Partly Cloudy
4:36 AM 69.8 °F - 68.0 °F 94% 29.98 in 1.0 mi SW 4.6 mph - N/A   Mist
4:43 AM 69.8 °F - 68.0 °F 94% 29.99 in 0.8 mi SSW 4.6 mph - N/A   Mist
4:46 AM 69.8 °F - 68.0 °F 94% 29.99 in 1.2 mi SSW 4.6 mph - N/A   Scattered Clouds
4:50 AM 69.8 °F - 68.0 °F 94% 29.99 in 3.0 mi SW 4.6 mph - N/A   Scattered Clouds
4:53 AM 69.1 °F - 68.0 °F 96% 29.99 in 4.0 mi SSW 4.6 mph - N/A   Scattered Clouds
5:35 AM 68.0 °F - 66.2 °F 94% 30.01 in 2.0 mi Calm Calm - N/A   Clear
5:42 AM 68.0 °F - 66.2 °F 94% 30.01 in 1.8 mi Calm Calm - N/A   Clear
5:53 AM 66.9 °F - 66.0 °F 97% 30.02 in 1.2 mi SSE 3.5 mph - N/A   Clear
6:04 AM 68.0 °F - 66.2 °F 94% 30.03 in 3.0 mi Calm Calm - N/A   Scattered Clouds
6:38 AM 69.8 °F - 68.0 °F 94% 30.06 in 4.0 mi Calm Calm - N/A   Mostly Cloudy
6:53 AM 70.0 °F - 68.0 °F 93% 30.07 in 8.0 mi NNW 6.9 mph - N/A   Partly Cloudy
7:53 AM 73.0 °F - 69.1 °F 87% 30.09 in 8.0 mi ENE 11.5 mph - N/A   Clear
8:53 AM 79.0 °F - 66.9 °F 66% 30.09 in 10.0 mi ENE 11.5 mph - N/A   Clear
9:01 AM 78.8 °F - 66.2 °F 65% 30.09 in 10.0 mi East 10.4 mph - N/A   Partly Cloudy
9:53 AM 81.0 °F 83.0 °F 66.0 °F 60% 30.11 in 10.0 mi East 11.5 mph - N/A   Clear
10:53 AM 81.0 °F 83.8 °F 68.0 °F 65% 30.11 in 10.0 mi ENE 15.0 mph 19.6 mph N/A   Clear
11:53 AM 82.0 °F 85.5 °F 69.1 °F 65% 30.09 in 10.0 mi ENE 12.7 mph 19.6 mph N/A   Clear
12:53 PM 82.0 °F 83.4 °F 64.0 °F 54% 30.08 in 10.0 mi ENE 15.0 mph - N/A   Partly Cloudy
1:53 PM 82.9 °F 84.0 °F 63.0 °F 51% 30.07 in 10.0 mi East 15.0 mph 21.9 mph N/A   Clear
2:53 PM 82.0 °F 82.0 °F 57.9 °F 44% 30.07 in 10.0 mi ENE 16.1 mph 19.6 mph N/A   Clear
3:53 PM 81.0 °F 81.0 °F 57.0 °F 44% 30.06 in 10.0 mi NE 13.8 mph - N/A   Clear
4:53 PM 79.0 °F - 57.0 °F 47% 30.07 in 10.0 mi ENE 11.5 mph - N/A   Clear
5:53 PM 75.9 °F - 57.9 °F 54% 30.09 in 10.0 mi ENE 5.8 mph - N/A   Clear
6:53 PM 73.0 °F - 57.9 °F 59% 30.10 in 10.0 mi ENE 5.8 mph - N/A   Clear
7:53 PM 72.0 °F - 57.9 °F 61% 30.11 in 10.0 mi ENE 6.9 mph - N/A   Clear
8:53 PM 71.1 °F - 59.0 °F 66% 30.12 in 10.0 mi ENE 5.8 mph - N/A   Clear
9:53 PM 71.1 °F - 59.0 °F 66% 30.13 in 10.0 mi East 6.9 mph - N/A   Clear
10:53 PM 71.1 °F - 59.0 °F 66% 30.12 in 10.0 mi East 5.8 mph - N/A   Clear
11:53 PM 70.0 °F - 59.0 °F 68% 30.12 in 10.0 mi East 6.9 mph - N/A   Clear